Weather History for Concordia, KS

Change the Weather History Date:

Wednesday, October 2, 2013

  Actual Average Record
Temperature  
Mean Temperature 22 °C 16 °C  
Max Temperature 29 °C 23 °C 35 °C (1938)
Min Temperature 15 °C 9 °C 0 °C (2004)
Degree Days  
Heating Degree Days 0 6  
Month to date heating degree days 0 12  
Since 1 July heating degree days 21 85  
Cooling Degree Days 7 2  
Month to date cooling degree days 9 4  
Year to date cooling degree days 1336 1330  
Growing Degree Days 22 (Base 50)    
Moisture  
Dew Point 17 °C    
Average Humidity 76    
Maximum Humidity 97    
Minimum Humidity 55    
Precipitation  
Precipitation 0.00 mm 2.29 mm 4.22 mm (1907)
Month to date precipitation 0.00 0.17  
Year to date precipitation 24.70 24.18  
Snow  
Snow 0.00 cm 0.00 cm T cm (1907)
Month to date snowfall 0.0 0.0  
Year to date snowfall 20.3 13.7  
Since 1 July snowfall 0.0 0.0  
Snow Depth 0.00 cm    
Sea Level Pressure  
Sea Level Pressure 1011 hPa    
Wind  
Wind Speed 22 km/h (SSE)    
Max Wind Speed 37 km/h    
Max Gust Speed 50 km/h    
Visibility 12 kilometers    
Events      
T = Trace of Precipitation, MM = Missing Value Source: NWS Daily Summary

Daily Weather History Graph

Daily Weather History Graph

Search for Another Location

Airport:

Trip Planner

Search our weather history database for the weather conditions in past years. The results will help you decide how hot, cold, wet, or windy it might be!

Date:

Astronomy

Oct. 02, 2013 Rise Set
Actual Time 7:27 AM CDT 7:11 PM CDT
Civil Twilight 7:01 AM CDT 7:37 PM CDT
Nautical Twilight 6:29 AM CDT 8:08 PM CDT
Astronomical Twilight 5:58 AM CDT 8:40 PM CDT
Moon 5:02 AM CDT (10/2) 5:47 PM CDT (10/2)
Length of Visible Light 12h 36m
Length of Day
11h 43m
Waning Crescent, 6% of the Moon is Illuminated
Oct 2
Waning Crescent
Oct 4
New
Oct 11
First Quarter
Oct 18
Full
Oct 26
Last Quarter

Hourly Weather History & Observations

Time (CDT) Temp. Heat Index Dew Point Humidity Pressure Visibility Wind Dir Wind Speed Gust Speed Precip Events Conditions
12:55 AM 20.0 °C - 16.7 °C 81% 1012.6 hPa 12.9 km SSE 16.7 km/h / 4.6 m/s - N/A   Clear
1:55 AM 20.6 °C - 16.7 °C 78% 1012.5 hPa 12.9 km SSE 18.5 km/h / 5.1 m/s - N/A   Mostly Cloudy
2:55 AM 20.0 °C - 16.7 °C 81% 1012.3 hPa 14.5 km SSE 18.5 km/h / 5.1 m/s - N/A   Partly Cloudy
3:55 AM 18.3 °C - 16.1 °C 87% 1012.0 hPa 14.5 km SE 11.1 km/h / 3.1 m/s - N/A   Partly Cloudy
4:55 AM 19.4 °C - 16.1 °C 81% 1011.7 hPa 14.5 km South 18.5 km/h / 5.1 m/s - N/A   Clear
5:55 AM 17.2 °C - 15.6 °C 90% 1012.0 hPa 11.3 km ENE 7.4 km/h / 2.1 m/s - N/A   Clear
6:55 AM 15.6 °C - 15.0 °C 96% 1012.5 hPa 6.4 km ENE 7.4 km/h / 2.1 m/s - N/A   Clear
7:33 AM 15.0 °C - 14.4 °C 96% 1013.4 hPa 3.2 km Calm Calm - N/A   Clear
7:46 AM 17.8 °C - 16.7 °C 93% 1013.4 hPa 9.7 km SSE 14.8 km/h / 4.1 m/s - N/A   Clear
7:55 AM 17.8 °C - 16.7 °C 93% 1012.7 hPa 8.0 km SSE 13.0 km/h / 3.6 m/s - N/A   Clear
8:55 AM 20.0 °C - 17.8 °C 87% 1012.7 hPa 9.7 km SSE 20.4 km/h / 5.7 m/s - N/A   Clear
9:55 AM 22.8 °C - 17.8 °C 73% 1012.7 hPa 11.3 km South 24.1 km/h / 6.7 m/s 35.2 km/h / 9.8 m/s N/A   Clear
10:55 AM 23.9 °C - 18.3 °C 71% 1012.5 hPa 11.3 km SSE 27.8 km/h / 7.7 m/s - N/A   Partly Cloudy
11:55 AM 25.0 °C - 18.9 °C 69% 1012.1 hPa 11.3 km South 31.5 km/h / 8.7 m/s - N/A   Partly Cloudy
12:55 PM 26.1 °C - 18.9 °C 64% 1011.5 hPa 11.3 km SSE 31.5 km/h / 8.7 m/s 44.4 km/h / 12.3 m/s N/A   Partly Cloudy
1:55 PM 27.2 °C 28.3 °C 18.9 °C 60% 1010.6 hPa 11.3 km SSE 27.8 km/h / 7.7 m/s 40.7 km/h / 11.3 m/s N/A   Scattered Clouds
2:55 PM 28.3 °C 29.1 °C 17.8 °C 53% 1009.8 hPa 14.5 km SSE 31.5 km/h / 8.7 m/s - N/A   Scattered Clouds
3:55 PM 27.2 °C 28.0 °C 17.8 °C 56% 1009.2 hPa 12.9 km SSE 29.6 km/h / 8.2 m/s 38.9 km/h / 10.8 m/s N/A   Scattered Clouds
4:55 PM 28.3 °C 29.1 °C 17.8 °C 53% 1008.4 hPa 12.9 km South 27.8 km/h / 7.7 m/s - N/A   Clear
5:55 PM 27.8 °C 28.6 °C 17.8 °C 54% 1008.0 hPa 14.5 km South 31.5 km/h / 8.7 m/s - N/A   Clear
6:55 PM 26.1 °C - 17.8 °C 60% 1008.1 hPa 14.5 km SSE 18.5 km/h / 5.1 m/s - N/A   Clear
7:55 PM 23.9 °C - 17.8 °C 69% 1008.7 hPa 12.9 km SSE 13.0 km/h / 3.6 m/s - N/A   Clear
8:55 PM 23.3 °C - 18.3 °C 73% 1008.8 hPa 14.5 km SSE 22.2 km/h / 6.2 m/s - N/A   Scattered Clouds
9:55 PM 22.8 °C - 18.3 °C 76% 1008.9 hPa 14.5 km SSE 20.4 km/h / 5.7 m/s - N/A   Clear
10:55 PM 22.2 °C - 18.3 °C 78% 1008.3 hPa 14.5 km SSE 18.5 km/h / 5.1 m/s - N/A   Scattered Clouds
11:55 PM 22.8 °C - 18.3 °C 76% 1008.1 hPa 16.1 km South 25.9 km/h / 7.2 m/s - N/A   Scattered Clouds